AO-07 1 07530U 74089B 23012.17804696 -.00000033 00000-0 78975-4 0 9999 2 07530 101.9318 357.9018 0012299 3.2563 60.1831 12.53660044203864 UO-11 1 14781U 84021B 23012.76399694 .00001959 00000-0 24060-3 0 9996 2 14781 97.6401 355.9631 0008331 4.4556 355.6731 14.84124044 92082 AO-16 1 20439U 90005D 23012.25220944 .00000284 00000-0 12061-3 0 9995 2 20439 98.8695 358.6113 0009898 303.8259 67.8051 14.32985018722825 LO-19 1 20442U 90005G 23012.76667976 .00000277 00000-0 11782-3 0 9996 2 20442 98.8243 346.1446 0010667 275.4205 84.5761 14.33138612723141 HUBBLE 1 20580U 90037B 23012.86074785 .00004348 00000-0 23889-3 0 9999 2 20580 28.4685 220.3021 0002565 132.2223 251.4863 15.11610121598182 MET-2/21 1 22782U 93055A 23012.10302531 .00000053 00000-0 34287-4 0 9992 2 22782 82.5476 208.6323 0023333 120.5216 358.1661 13.83869819483135 AO-27 1 22825U 93061C 23011.85543524 .00000170 00000-0 83533-4 0 9995 2 22825 98.8642 52.0526 0008843 158.0221 202.1341 14.30227924527944 IO-26 1 22826U 93061D 23012.80705582 .00000168 00000-0 82173-4 0 9992 2 22826 98.8586 52.8898 0009623 142.7832 217.4018 14.30580355528599 FO-29 1 24278U 96046B 23012.76550828 .00000019 00000-0 52124-4 0 9995 2 24278 98.5154 12.6129 0351288 100.1158 263.9798 13.53127606304163 NOAA-15 1 25338U 98030A 23012.76932775 .00000205 00000-0 10348-3 0 9991 2 25338 98.6241 44.3514 0011133 51.3566 308.8609 14.26220879283108 GO-32 1 25397U 98043D 23012.63837973 .00000148 00000-0 84340-4 0 9990 2 25397 98.8478 328.9473 0000897 168.7388 191.3811 14.23803479273415 ISS 1 25544U 98067A 23012.86910741 .00014350 00000-0 25752-3 0 9991 2 25544 51.6445 17.8812 0004629 257.4863 174.7993 15.50152799377708 NO-44 1 26931U 01043C 23012.32682181 .00000203 00000-0 10915-3 0 9992 2 26931 67.0498 239.2302 0005391 279.0475 81.0017 14.30791504111442 SO-50 1 27607U 02058C 23011.75781294 .00002093 00000-0 30388-3 0 9996 2 27607 64.5563 24.2754 0079884 255.1064 104.1183 14.76578898 79126 CO-55 1 27844U 03031E 23012.82287749 .00000458 00000-0 22450-3 0 9990 2 27844 98.6795 22.3637 0009287 210.6836 149.3800 14.22583703 13673 CO-57 1 27848U 03031J 23011.72645746 .00000391 00000-0 19629-3 0 9997 2 27848 98.6833 21.7529 0008901 229.7446 130.2954 14.22121227 13266 RS-22 1 27939U 03042A 23012.85592426 .00001610 00000-0 29111-3 0 9993 2 27939 98.2175 158.9470 0011501 266.5388 93.4515 14.67736321 31757 NOAA-18 1 28654U 05018A 23012.90870779 .00000289 00000-0 17913-3 0 9997 2 28654 98.9280 87.9561 0015215 99.6164 260.6727 14.12838111909646 CO-58 1 28895U 05043F 23012.58258321 .00002313 00000-0 44160-3 0 9993 2 28895 98.1308 146.1487 0016099 198.8817 161.1791 14.64821842918252 Falconsat-3 1 30776U 07006E 23012.10832075 .00690276 21023-3 13230-2 0 9992 2 30776 35.4213 307.2620 0010280 248.0770 111.8884 15.99402204882311 CO-65 1 32785U 08021C 23012.68776896 .00003930 00000-0 40690-3 0 9998 2 32785 97.6868 342.3541 0010886 259.0360 100.9633 14.90575955797714 AAUSAT2 1 32788U 08021F 23011.92134409 .00009952 00000-0 80892-3 0 9993 2 32788 97.5566 355.3837 0010538 133.2737 226.9368 14.99735449799753 DO-64 1 32789U 08021G 23012.98308517 .00034556 00000-0 15807-2 0 9995 2 32789 97.3225 37.3091 0007492 324.0251 36.0479 15.20422402803788 CO-66 1 32791U 08021J 23012.17576534 .00006340 00000-0 59722-3 0 9990 2 32791 97.6381 347.1537 0011629 207.8642 152.1957 14.94114240798426 RS-30 1 32953U 08025A 23012.63295778 .00000024 00000-0 10000-3 0 9992 2 32953 82.5036 53.8456 0020004 160.7784 199.4056 12.43117302664327 PRISM 1 33493U 09002B 23012.82345631 .00011391 00000-0 86521-3 0 9993 2 33493 98.2490 16.9204 0017010 204.3140 155.7282 15.02248221760393 NOAA-19 1 33591U 09005A 23012.79240152 .00000202 00000-0 13417-3 0 9996 2 33591 99.1235 56.0713 0013273 323.0119 37.0136 14.12665752718004 SRMSAT 1 37841U 11058D 23012.85404012 .00000479 00000-0 11797-3 0 9998 2 37841 19.9729 69.1160 0011994 123.9592 32.9708 14.10812647581074 HRBE 1 37855U 11061F 23011.54367391 .00019181 00000-0 74729-3 0 9994 2 37855 101.7111 246.9197 0139827 156.6766 204.0879 15.17418879613200 RS-40 1 38735U 12041C 23012.83817795 .00000015 00000-0 39408-4 0 9994 2 38735 82.4770 134.9697 0016386 274.3957 85.5260 12.42589883474524 ZACUBE-1 1 39417U 13066B 23012.83717262 .00004443 00000-0 53304-3 0 9997 2 39417 97.6660 340.3220 0058263 78.2616 282.5127 14.83295288494158 Delfi-N3xt 1 39428U 13066N 23012.54061781 .00008138 00000-0 12208-2 0 9997 2 39428 97.8288 303.1806 0114238 329.6105 29.8511 14.70459990489427 GOMX-1 1 39430U 13066Q 23012.82989141 .00001707 00000-0 30714-3 0 9998 2 39430 97.7970 272.9622 0149133 104.2154 257.5671 14.60812536486858 LO-74 1 39440U 13066AA 23012.60297860 .00003107 00000-0 41758-3 0 9991 2 39440 97.7552 326.7775 0077655 171.7056 188.5460 14.77886295492364 AO-73 1 39444U 13066AE 23012.62175253 .00005305 00000-0 61633-3 0 9994 2 39444 97.6531 342.5646 0056785 66.0596 294.6552 14.84589669493133 SPROUT 1 39770U 14029E 23012.77760506 .00015996 00000-0 14827-2 0 9992 2 39770 97.9577 136.7051 0008776 110.9842 249.2315 14.94519836468888 DTUSAT-2 1 40030U 14033W 23012.70841074 .00005816 00000-0 59169-3 0 9990 2 40030 97.9556 311.6161 0013003 85.4426 274.8277 14.91090129465328 EO-80 1 40032U 14033Y 23012.07995074 .00005105 00000-0 52049-3 0 9993 2 40032 97.9557 310.9989 0012780 88.0526 272.2155 14.91066853465214 HODOYOSHI-1 1 40299U 14070B 23012.64970406 .00009936 00000-0 34917-3 0 9994 2 40299 97.2185 79.6200 0013138 111.2425 41.1418 15.29484534455002 FIREBIRD FU3 1 40377U 15003B 23012.33839745 .00054422 00000-0 12168-2 0 9997 2 40377 99.0780 289.9762 0082090 34.1375 326.5106 15.39755832440448 FIREBIRD FU4 1 40378U 15003C 23012.34983726 .00056511 00000-0 12584-2 0 9991 2 40378 99.0793 290.2600 0081912 33.6124 327.0274 15.39878938440453 GRIFEX 1 40379U 15003D 23012.68884881 .00024475 00000-0 74131-3 0 9992 2 40379 99.0848 273.6913 0104320 82.7123 278.5955 15.28885773439536 XW-2A 1 40903U 15049E 23012.78320530 .00074064 00000-0 67066-3 0 9990 2 40903 97.1470 77.9010 0007656 63.2936 45.7204 15.67800744411878 XW-2C 1 40906U 15049H 23012.97223332 .00011042 00000-0 48858-3 0 9991 2 40906 97.4957 20.0965 0012915 356.2090 62.8490 15.21770104404754 XW-2D 1 40907U 15049J 23012.82805647 .00012810 00000-0 54893-3 0 9991 2 40907 97.4944 20.1626 0011641 351.9137 130.3821 15.22840284404796 LILACSAT-2 1 40908U 15049K 23012.80577637 .00006054 00000-0 30641-3 0 9993 2 40908 97.5218 16.5866 0015336 17.4425 107.4760 15.17286070404211 XW-2E 1 40909U 15049L 23012.78512693 .00021220 00000-0 76563-3 0 9997 2 40909 97.4609 25.2687 0009483 326.4610 208.8923 15.28494787405326 XW-2F 1 40910U 15049M 23012.78712799 .00021177 00000-0 77707-3 0 9990 2 40910 97.4702 24.4623 0010252 327.6160 207.0397 15.27933026405084 XW-2B 1 40911U 15049N 23012.80536171 .00012725 00000-0 54767-3 0 9992 2 40911 97.4923 20.6624 0012017 353.3669 131.4588 15.22689907404677 DCBB 1 40912U 15049P 23012.77154688 .00024558 00000-0 79926-3 0 9999 2 40912 97.4293 28.8190 0009148 283.0929 191.0843 15.31818219405728 IO-86 1 40931U 15052B 23012.66073776 .00001250 00000-0 84070-4 0 9991 2 40931 5.9978 116.5191 0013633 254.8791 104.9883 14.76972505394323 ATHENOXAT-1 1 41168U 15077C 23012.23884510 .00042617 00000-0 14200-2 0 9998 2 41168 14.9929 335.3764 0008621 302.0487 95.0435 15.29134687392217 ChubuSat-2 1 41338U 16012B 23011.70198980 .00004747 00000-0 34367-3 0 9996 2 41338 31.0025 137.0878 0012990 60.2478 299.9449 15.02346891378816 ChubuSat-3 1 41339U 16012C 23012.68519576 .00003762 00000-0 27107-3 0 9993 2 41339 31.0088 127.7513 0012747 77.9802 282.2263 15.02351395378964 Horyu-4 1 41340U 16012D 23011.96302379 .00008543 00000-0 58086-3 0 9998 2 41340 31.0044 106.0709 0012761 118.0943 242.0985 15.04983684379144 e-st@r-II 1 41459U 16025D 23012.77951497 .00023971 00000-0 90527-3 0 9992 2 41459 98.1902 199.4868 0129043 276.2091 82.4467 15.19479541369213 AAUSAT4 1 41460U 16025E 23012.76522168 .00051317 00000-0 15025-2 0 9996 2 41460 98.1744 208.0961 0100823 244.0045 175.0794 15.30081518369811 LO-87 1 41557U 16033B 23012.67961115 .00030880 00000-0 72434-3 0 9991 2 41557 97.3883 116.6668 0009308 351.9920 144.0669 15.41965035369530 NuSat2 1 41558U 16033C 23012.90365380 .00028773 00000-0 63789-3 0 9991 2 41558 97.4140 123.8317 0008480 338.8816 130.7601 15.43676712369875 Lapan A3 1 41603U 16040E 23012.65810662 .00002476 00000-0 11316-3 0 9991 2 41603 97.1833 45.3632 0014003 138.8280 9.5306 15.21358437363833 Pratham 1 41783U 16059A 23012.10039914 .00000932 00000-0 18707-3 0 9999 2 41783 97.8892 50.0321 0032206 233.0891 126.7360 14.63581339336143 TY-1 1 41844U 16066D 23012.66556110 .00030772 00000-0 83987-3 0 9995 2 41844 97.3811 29.4998 0008977 260.1065 237.6419 15.37337167343661 CAS-2T 1 41847U 16066G 23012.59854763 .00001343 00000-0 21171-3 0 9994 2 41847 98.5262 81.8122 0361230 304.0452 52.6922 14.39016930324420 EO-88 1 42017U 17008BX 23011.43336107 .00049576 00000-0 10699-2 0 9992 2 42017 97.2418 80.3732 0002989 204.9990 155.1114 15.44390152329052 CAS-4B 1 42759U 17034B 23012.69120036 .00007788 00000-0 43367-3 0 9993 2 42759 43.0177 257.9086 0009709 183.3551 270.7015 15.13939990308045 CAS-4A 1 42761U 17034D 23012.70648593 .00007917 00000-0 43945-3 0 9997 2 42761 43.0176 256.4537 0009970 184.2588 225.2028 15.14033070308057 NIUSat 1 42766U 17036B 23011.87738380 .00020445 00000-0 68762-3 0 9990 2 42766 97.1788 47.5041 0010771 310.9344 49.0964 15.30776138308631 Aalto 1 1 42775U 17036L 23011.54419048 .00015567 00000-0 55263-3 0 9992 2 42775 97.1738 46.6359 0010113 313.6960 46.3442 15.29079123308530 URSA MAIOR 1 42776U 17036M 23012.08064234 .00018043 00000-0 62017-3 0 9993 2 42776 97.1750 48.1400 0009649 309.4556 50.5831 15.30106978308669 Max Valier Sat 1 42778U 17036P 23012.83437890 .00022036 00000-0 72508-3 0 9993 2 42778 97.1799 51.9579 0008258 306.7089 53.3393 15.31490433308891 Pegasus 1 42784U 17036V 23011.83273207 .00028977 00000-0 86107-3 0 9999 2 42784 97.1732 52.4025 0007411 308.4019 51.6559 15.34696816308902 NUDATSat 1 42787U 17036Y 23012.56628164 .00055983 00000-0 11650-2 0 9996 2 42787 97.1726 59.4140 0005148 277.2731 82.7915 15.45425655309244 SUCHAI 1 1 42788U 17036Z 23011.82707686 .00037846 00000-0 10049-2 0 9991 2 42788 97.1725 54.7758 0006427 300.9912 59.0702 15.38163685309125 SKCUBE 1 42789U 17036AA 23011.84055486 .00032865 00000-0 92066-3 0 9994 2 42789 97.1725 53.9210 0006657 303.0985 56.9620 15.36528771308997 VZLUSAT 1 1 42790U 17036AB 23011.37816200 .00058581 00000-0 12422-2 0 9993 2 42790 97.1734 58.1326 0004988 288.6110 71.4597 15.44860564309205 VENTA 1 1 42791U 17036AC 23011.54509978 .00026338 00000-0 77717-3 0 9998 2 42791 97.1737 53.2452 0006750 306.0623 53.9995 15.34941338308910 Robusta 1B 1 42792U 17036AD 23012.80154906 .00035518 00000-0 95745-3 0 9997 2 42792 97.1721 55.6452 0006065 297.9685 62.0946 15.37712478309209 D-SAT 1 42794U 17036AF 23012.63491032 .00003510 00000-0 29081-3 0 9991 2 42794 97.4585 12.2102 0122158 104.1149 257.3683 14.93757993302728 TechnoSat 1 42829U 17042E 23012.84720175 .00003360 00000-0 33165-3 0 9994 2 42829 97.3973 219.5701 0014683 32.0322 328.1788 14.92514837299319 AO-91 1 43017U 17073E 23012.24365985 .00008831 00000-0 64699-3 0 9990 2 43017 97.6511 262.8241 0241068 222.8340 135.3874 14.83342226278040 PICSAT 1 43132U 18004X 23012.62502896 .00036019 00000-0 92966-3 0 9996 2 43132 97.3521 93.5600 0006490 337.3111 22.7846 15.39048263278482 AO-92 1 43137U 18004AC 23012.48751751 .00026805 00000-0 79356-3 0 9991 2 43137 97.3482 91.1892 0006724 350.8290 9.2829 15.34836535278335 TianYi 2 1 43155U 18008A 23012.82104722 .00014765 00000-0 70690-3 0 9997 2 43155 97.3247 69.5898 0015911 131.5599 339.8053 15.18938997275013 Zhou Enlai 1 43156U 18008B 23012.79016620 .00014980 00000-0 71803-3 0 9999 2 43156 97.3298 69.5199 0013390 131.2245 337.9723 15.18926466274939 TianYi 6 1 43158U 18008D 23012.40246848 .00012726 00000-0 64043-3 0 9990 2 43158 97.3256 66.6393 0012458 132.8172 237.9436 15.17276874274759 S-Net D 1 43186U 18014G 23012.46061710 .00004568 00000-0 38263-3 0 9997 2 43186 97.6454 279.1353 0009881 317.9078 42.1385 14.98874378270214 S-Net B 1 43187U 18014H 23012.72812807 .00004381 00000-0 36725-3 0 9992 2 43187 97.6450 279.3384 0009815 316.7965 43.2488 14.98873127270257 S-Net A 1 43188U 18014J 23011.52676332 .00004274 00000-0 35850-3 0 9990 2 43188 97.6458 278.2363 0009954 321.2846 38.7663 14.98862587270076 S-Net C 1 43189U 18014K 23012.59611150 .00004483 00000-0 37576-3 0 9995 2 43189 97.6448 279.1941 0009689 317.3962 42.6509 14.98867132268787 FMN 1 1 43192U 18015A 23012.78425970 .00123841 00000-0 15668-2 0 9991 2 43192 97.5530 171.2867 0009569 343.9019 122.9803 15.59041242275787 Shaonian Xing 1 43199U 18015H 23012.78470903 .00044365 00000-0 96337-3 0 9990 2 43199 97.5348 163.4430 0011625 11.6440 93.8650 15.44167452275628 SurfSat 1 43614U 18070B 23012.26492963 .00532350 11707-3 13100-2 0 9997 2 43614 92.9907 188.5530 0004754 290.3747 69.7027 15.96045150243767 CP-7 DAVE 1 43615U 18070C 23012.95509356 .00283939 00000-0 12174-2 0 9996 2 43615 92.9943 188.2574 0005527 278.6113 81.4539 15.84378871243774 CubeBel-1 1 43666U 18083E 23012.94048525 .00021989 00000-0 80180-3 0 9999 2 43666 97.4009 44.6226 0010562 322.3162 123.8880 15.28128556233419 Changshagaoxin 1 43669U 18083H 23012.70225282 .00018161 00000-0 70660-3 0 9993 2 43669 97.3974 39.6969 0007804 326.2989 143.4953 15.26043927233162 Ten-Koh 1 43677U 18084G 23012.60684553 .00003058 00000-0 30841-3 0 9998 2 43677 97.9892 150.0200 0014476 305.5205 54.4662 14.91809566228854 PO-101 1 43678U 18084H 23012.77598227 .00001659 00000-0 16674-3 0 9992 2 43678 97.9966 153.9418 0008964 322.2980 37.7597 14.92637939229071 IRVINE 01 1 43693U 18088D 23012.15961105 .00423416 00000-0 26406-2 0 9996 2 43693 85.0135 166.7786 0008613 346.7094 13.3948 15.75708614232538 QO-100 1 43700U 18090A 23011.84682296 .00000161 00000-0 00000-0 0 9992 2 43700 0.0159 36.8606 0001974 304.7266 100.1804 1.00272171 15112 Reaktor Hello World 1 43743U 18096AA 23012.53268766 .00035196 00000-0 84545-3 0 9999 2 43743 97.3359 97.2064 0013450 30.7710 329.4323 15.41170092230076 MinXSS-2 1 43758U 18099A 23011.65730742 .00007354 00000-0 61284-3 0 9998 2 43758 97.5992 79.4498 0012672 285.2801 74.7021 14.98848823224278 AO-95 1 43770U 18099N 23011.60736113 .00005560 00000-0 47870-3 0 9997 2 43770 97.5976 77.4079 0012306 301.9282 58.0743 14.97693469224156 RANGE-B 1 43772U 18099Q 23011.89311276 .00007366 00000-0 61594-3 0 9994 2 43772 97.6084 79.9219 0012356 285.1219 74.8637 14.98721388224230 RANGE-A 1 43773U 18099R 23012.60829951 .00003285 00000-0 29036-3 0 9990 2 43773 97.5885 76.8817 0011472 284.1488 75.8459 14.96955172224279 MOVE-II 1 43780U 18099Y 23012.93929267 .00010573 00000-0 85541-3 0 9996 2 43780 97.6045 80.4635 0009766 298.5825 61.4415 14.99907672224438 SNUSat 2 1 43782U 18099AA 23012.17104836 .00005295 00000-0 45548-3 0 9999 2 43782 97.5952 78.4666 0011108 281.1487 78.8487 14.97759880224268 SnugLite 1 43784U 18099AC 23011.97121429 .00006065 00000-0 51608-3 0 9995 2 43784 97.5913 77.8953 0013377 289.1094 70.8680 14.98103666224264 ITASat 1 1 43786U 18099AE 23011.65708689 .00005341 00000-0 46038-3 0 9998 2 43786 97.5985 78.4709 0012735 291.3555 68.6308 14.97661586224200 EAGLET 1 1 43790U 18099AJ 23012.14125058 .00004495 00000-0 38860-3 0 9994 2 43790 97.5993 79.4819 0011149 295.4095 64.5973 14.97645567224012 ESEO 1 43792U 18099AL 23011.97439523 .00002380 00000-0 21302-3 0 9995 2 43792 97.5923 78.1846 0011778 291.9195 68.0775 14.96730357224013 CSIM 1 43793U 18099AM 23012.41992292 .00009437 00000-0 75113-3 0 9992 2 43793 97.6066 81.1025 0014903 281.7051 78.2501 15.00515962224195 Astrocast 0.1 1 43798U 18099AS 23012.42515801 .00008175 00000-0 67172-3 0 9999 2 43798 97.6003 80.6512 0010817 270.4778 89.5206 14.99376193224406 JO-97 1 43803U 18099AX 23012.12355037 .00007048 00000-0 59359-3 0 9992 2 43803 97.5946 78.7726 0012322 287.4115 72.5760 14.98454932224302 Suomi 100 1 43804U 18099AY 23011.82550536 .00005539 00000-0 46975-3 0 9993 2 43804 97.5944 78.3546 0013541 290.2919 69.6848 14.98272434224269 Al Farabi 2 1 43805U 18099AZ 23011.84414187 .00006748 00000-0 55695-3 0 9999 2 43805 97.5949 79.1450 0013679 284.4569 75.5136 14.99243483224300 CHOMPTT 1 43855U 18104G 23011.70636620 .00020024 00000-0 64482-3 0 9991 2 43855 85.0330 271.9012 0013429 171.9892 188.1572 15.31992985226558 ISAT 1 43879U 18111D 23012.71422528 .00007029 00000-0 57461-3 0 9996 2 43879 97.6527 279.5562 0012970 338.8731 21.1955 14.99609623218998 UWE-4 1 43880U 18111E 23012.70093041 .00007251 00000-0 59137-3 0 9990 2 43880 97.6613 280.3711 0012178 352.4369 7.6668 14.99696489219044 Sparrow 1 43881U 18111F 23012.69104960 .00008638 00000-0 69889-3 0 9997 2 43881 97.6613 280.6805 0011474 357.6868 2.4300 14.99952099219050 Lume 1 1 43908U 18111AJ 23012.63826877 .00025172 00000-0 72020-3 0 9992 2 43908 97.1636 259.1448 0017749 48.5614 311.7152 15.35782893225434 FO-99 1 43937U 19003F 23012.82982946 .00031378 00000-0 84882-3 0 9990 2 43937 97.1091 43.5836 0019084 119.0109 241.3052 15.37458758222069 AstroCast 0.2 1 44083U 19018F 23012.92790500 .00035343 00000-0 10964-2 0 9998 2 44083 97.2939 73.2319 0008929 94.6439 265.5824 15.33278424210507 AISTechSat 3 1 44103U 19018AB 23012.78024077 .00020683 00000-0 66496-3 0 9997 2 44103 97.2805 73.1114 0012124 108.3739 251.8823 15.32212392210645 AISat 1 1 44104U 19018AC 23011.87306714 .00019096 00000-0 46696-3 0 9994 2 44104 97.3836 101.1855 0048696 104.3694 256.2964 15.39587694211614 Prox-1 1 44339U 19036A 23012.88733572 .00008896 00000-0 19053-2 0 9994 2 44339 24.0014 309.9067 0009413 354.6256 5.4135 14.56690435188994 Oculus-ASR 1 44348U 19036K 23012.68426141 .00268353 14806-4 10172-2 0 9995 2 44348 28.4904 156.4633 0115367 191.5424 168.2528 15.76464048197069 NO-104 1 44354U 19036R 23012.66575152 .00290252 20261-4 87374-3 0 9991 2 44354 28.5162 134.3352 0097923 223.4164 135.8701 15.83197216197273 Move-IIb 1 44398U 19038N 22364.13309402 .00019028 00000-0 76981-3 0 9992 2 44398 97.6498 336.2487 0018884 162.3874 197.8024 15.24592615192784 SONATE 1 44400U 19038Q 23012.67074500 .00011281 00000-0 56758-3 0 9997 2 44400 97.6681 347.7577 0023828 128.5082 231.8293 15.17142321194627 BeeSat 9 1 44412U 19038AC 23012.64691717 .00019387 00000-0 86409-3 0 9993 2 44412 97.6614 349.3389 0020197 126.2598 234.0507 15.21281948194445 JAISAT-1 1 44419U 19038F 23012.89768027 .00020567 00000-0 90486-3 0 9998 2 44419 97.6617 350.5881 0019291 122.5441 237.7661 15.21730160194856 Taurus 1 1 44530U 19059C 23012.65945300 .00004361 00000-0 11812-2 0 9999 2 44530 98.5504 118.3750 0013408 201.7336 158.3295 14.48145711176117 Duchifat 3 1 44854U 19089C 23012.80487041 .00008195 00000-0 60284-3 0 9998 2 44854 36.9651 297.7251 0005463 127.3921 263.3937 15.02978406169420 OPS-SAT 1 44878U 19092F 23012.78733547 .00021439 00000-0 86233-3 0 9998 2 44878 97.4764 200.5803 0011205 335.3205 24.7495 15.24867917170030 TO-108 1 44881U 19093C 23012.63330902 .00001199 00000-0 15742-3 0 9993 2 44881 97.8771 93.6894 0013806 221.6845 138.3324 14.82030106165754 FloripaSat 1 1 44885U 19093G 23012.70121149 .00004067 00000-0 49279-3 0 9995 2 44885 97.8827 95.6963 0013151 225.8862 134.1281 14.84111839165871 RS-44 1 44909U 19096E 23011.62434619 .00000035 00000-0 97046-4 0 9991 2 44909 82.5210 91.9843 0217415 192.7393 166.8163 12.79717674142137 BY70-2 1 45857U 20042B 23012.70433237 .00015008 00000-0 18357-2 0 9994 2 45857 97.9415 92.8225 0010500 152.8859 207.2921 14.83286649136439 UPMSat 2 1 46276U 20061E 23012.65456477 .00008828 00000-0 41076-3 0 9993 2 46276 97.3686 83.6664 0002367 121.1338 239.0130 15.20171532130634 AmicalSat 1 46287U 20061R 23011.63288341 .00012073 00000-0 64362-3 0 9995 2 46287 97.4228 81.4400 0000948 294.3538 65.7596 15.15323138129960 SALSAT 1 46495U 20068K 23011.79786889 .00006352 00000-0 44255-3 0 9992 2 46495 97.7536 318.5534 0014823 293.5622 66.4047 15.05707288125528 BY70-3 1 46839U 20079N 23012.67032128 .00081922 00000-0 11131-2 0 9996 2 46839 97.1740 88.4735 0003243 293.7283 219.4390 15.57328768122602 CAPE 3 1 47309U 21002A 23011.78145616 .00025818 00000-0 86460-3 0 9994 2 47309 60.6821 298.2866 0041845 99.1412 261.4416 15.30046169110266 AO-109 1 47311U 21002C 23012.32184025 .00023954 00000-0 80971-3 0 9995 2 47311 60.6840 293.6819 0038710 97.1529 263.3965 15.29905253110379 MiTEE 1 1 47314U 21002F 23012.42771554 .00064767 00000-0 15012-2 0 9998 2 47314 60.6779 277.8540 0035307 91.6633 268.8507 15.41324927110663 ExoCube 2 1 47319U 21002L 23012.77796694 .00020823 00000-0 71634-3 0 9991 2 47319 60.6826 293.5509 0039658 99.0090 261.5491 15.29378341110378 UVSQ-SAT 1 47438U 21006AB 23012.05113651 .00015129 00000-0 72918-3 0 9993 2 47438 97.4098 71.8234 0009674 270.3434 89.6692 15.18774205108907 YUSAT 1 1 47439U 21006AC 23011.59875531 .00017045 00000-0 79685-3 0 9991 2 47439 97.4105 71.7081 0009277 271.2639 88.7533 15.19809621108852 SOMP 2b 1 47445U 21006AJ 23012.43573226 .00014515 00000-0 71037-3 0 9990 2 47445 97.4072 71.6626 0009410 274.3251 85.6908 15.18253822108946 IDEASSat 1 47458U 21006AX 23012.90243374 .00013905 00000-0 68471-3 0 9994 2 47458 97.4160 72.8063 0008587 270.8260 89.1990 15.18055722109008 CubeSX-Sirius-HSE 1 47951U 21022V 23012.65656001 .00008791 00000-0 54720-3 0 9996 2 47951 97.5136 272.7972 0021354 146.3302 246.5732 15.09641699 99534 CubeSX-HSE 1 47952U 21022W 23012.71181935 .00008514 00000-0 52938-3 0 9995 2 47952 97.5130 272.8858 0021020 145.2373 299.4223 15.09696394 99544 KSU-Cubesat 1 47954U 21022Y 23012.28565380 .00010738 00000-0 65870-3 0 9999 2 47954 97.5133 272.6807 0020481 145.5732 214.6829 15.10131685 99217 GRBAlpha 1 47959U 21022AD 23012.96532586 .00008392 00000-0 52120-3 0 9998 2 47959 97.5143 273.1950 0020770 144.2813 273.0975 15.09748752 98403 Orbicraft-Zorkiy 1 47960U 21022AE 23012.78269846 .00009548 00000-0 58699-3 0 9997 2 47960 97.5168 273.2702 0020490 144.7584 302.0158 15.10084177 99073 STECCO 1 47962U 21022AG 23012.93232698 .00014756 00000-0 82989-3 0 9997 2 47962 97.5122 274.7787 0015489 134.5031 354.3751 15.13269595 98508 DO-111 1 47963U 21022AH 23012.66644284 .00052729 00000-0 22000-2 0 9995 2 47963 97.5160 277.5497 0015644 121.1290 239.1484 15.23371467 98676 MO-110 1 47964U 21022AJ 23012.23284322 .00017868 00000-0 98874-3 0 9990 2 47964 97.5139 274.5066 0018363 133.0614 227.2158 15.13764783 98420 FEES 1 48082U 21022AL 23011.28637805 .00024988 00000-0 13067-2 0 9995 2 48082 97.5144 273.8513 0014382 130.8911 229.3570 15.15759368 98009 CSS 1 48274U 21035A 23012.23367050 -.00018367 00000-0 -21522-3 0 9992 2 48274 41.4753 26.4941 0005407 299.3023 160.2507 15.60221184 97446 TUBIN 1 48900U 21059X 23012.65628365 .00008021 00000-0 42120-3 0 9990 2 48900 97.5774 145.8946 0010994 99.2737 26.0118 15.15933008 85588 IT-SPINS 1 49017U 21013G 23012.57564326 .00024216 00000-0 78593-3 0 9994 2 49017 51.5946 115.5653 0007246 111.2874 248.8881 15.31795133 85776 LEDSAT 1 49069U 21073D 23012.65362127 .00008658 00000-0 52280-3 0 9998 2 49069 97.5028 86.3921 0024509 298.7927 61.0842 15.10691225 77393 CUTE 1 49263U 21088D 23012.64180595 .00006762 00000-0 47695-3 0 9994 2 49263 97.5665 81.3620 0020911 75.2893 285.0650 15.05113799 70869 TeikyoSat 4 1 49396U 21102B 23012.62478269 .00002552 00000-0 20211-3 0 9992 2 49396 97.5422 69.2789 0014290 274.7484 85.2109 15.01382695 64426 Z-Sat 1 49399U 21102E 23012.68736827 .00003858 00000-0 28652-3 0 9995 2 49399 97.5109 70.4999 0021120 236.3262 123.5950 15.03433053 64513 KOSEN 1 1 49402U 21102H 23012.78838643 .00004740 00000-0 33913-3 0 9997 2 49402 97.5012 70.8900 0020708 226.4069 133.5440 15.04730523 64577 HO-113 1 50466U 21131B 23012.80993083 .00000561 00000-0 19766-3 0 9991 2 50466 98.5652 94.8043 0003841 234.9435 125.1392 14.38620667 55019 Tevel-3 1 50988U 22002E 23012.81062648 .00014887 00000-0 73162-3 0 9999 2 50988 97.4567 81.4509 0010107 62.9380 33.7215 15.18097609 55135 Tevel-8 1 50989U 22002F 23012.75683194 .00015056 00000-0 74106-3 0 9996 2 50989 97.4587 81.4414 0010263 61.1220 33.1638 15.18040164 55126 Tevel-5 1 50998U 22002Q 23012.76002448 .00015582 00000-0 75266-3 0 9996 2 50998 97.4564 81.6345 0011523 57.3599 37.0835 15.18675807 55144 Tevel-6 1 50999U 22002R 23012.75913817 .00015545 00000-0 75070-3 0 9999 2 50999 97.4562 81.6312 0011597 56.6303 38.9009 15.18682921 55141 Tevel-1 1 51013U 22002AF 23012.81629821 .00015049 00000-0 74012-3 0 9997 2 51013 97.4564 81.4197 0009985 62.7686 32.1459 15.18068935 55137 Grizu-263a 1 51025U 22002AT 23012.45103682 .00040865 00000-0 16612-2 0 9997 2 51025 97.4738 83.4401 0011729 56.5503 303.6854 15.24364981 55188 NO-116 1 51031U 22002AZ 23011.61217637 .00026190 00000-0 11744-2 0 9993 2 51031 97.4690 81.7427 0012631 61.6678 298.5830 15.21121096 55017 IRIS-A 1 51044U 22002BN 23011.60923734 .00010010 00000-0 52915-3 0 9998 2 51044 97.4575 79.6980 0010169 67.9729 292.2583 15.15631535 54914 Tevel-7 1 51062U 22002CG 23012.75884462 .00015140 00000-0 74510-3 0 9993 2 51062 97.4586 81.4223 0010225 60.9698 33.1723 15.18042330 55122 Tevel-4 1 51063U 22002CH 23012.82169120 .00015124 00000-0 74475-3 0 9991 2 51063 97.4585 81.4768 0010186 61.3018 3.8352 15.18022473 55132 Tevel-2 1 51069U 22002CP 23012.81197367 .00014923 00000-0 73343-3 0 9999 2 51069 97.4567 81.4314 0010081 62.4795 31.4591 15.18095293 55135 DELFI-PQ 1 51074U 22002CU 23011.63250824 .00028039 00000-0 11848-2 0 9996 2 51074 97.4819 83.2427 0013158 87.8279 272.4464 15.23125607 55070 SO-115 1 51080U 22002DA 23012.13112832 .00020335 00000-0 92443-3 0 9997 2 51080 97.4835 83.2539 0013639 88.0283 272.2514 15.20692993 55114 SO-114 1 51081U 22002DB 23011.14320410 .00020920 00000-0 95061-3 0 9990 2 51081 97.4824 82.2362 0013917 91.0736 269.2094 15.20697924 54962 OreSat0 1 52017U 22026K 23012.73113821 .00015987 00000-0 77202-3 0 9992 2 52017 97.5097 15.3933 0023357 267.6581 92.1979 15.18495868 45903 Planetum 1 1 52738U 22057G 23012.55414962 .00013797 00000-0 74368-3 0 9993 2 52738 97.5264 129.3484 0007885 161.3805 198.7717 15.14877856 35058 Foresail-1 1 52766U 22057AL 23012.59609122 .00009112 00000-0 48306-3 0 9991 2 52766 97.5376 130.0828 0013716 145.6936 271.8917 15.15522591 35086 SNUGLITE 2 1 52899U 22065F 23012.88610216 .00001627 00000-0 35845-3 0 9992 2 52899 98.0439 162.3345 0007825 350.4668 9.6382 14.58675763 28219 CTIM 1 52950U 22074G 23012.69832340 .00023309 00000-0 81501-3 0 9994 2 52950 45.0136 139.1716 0009059 314.5236 45.4951 15.29167381 29694 IO-117 1 53106U 22080B 22354.08419093 -.00000003 00000-0 00000 0 0 9990 2 53106 70.1702 21.9397 0008914 226.9685 182.2049 6.42557326 10248 AstroBioCubeSat 1 53107U 22080C 22335.48380186 -.00000003 00000-0 00000 0 0 9994 2 53107 70.1769 28.4953 0013706 220.7562 139.2073 6.42110748 8949 CELESTA 1 53111U 22080G 22310.17474584 -.00000003 00000-0 00000 0 0 9994 2 53111 70.4223 37.2580 0024959 243.8956 115.9136 6.43203861 7301 RS4S 1 53306U 98067TR 23012.43027933 .00557182 00000-0 17656-2 0 9991 2 53306 51.6293 4.5292 0006356 66.8997 293.2678 15.89282206 27326 RS3S 1 53308U 98067TT 23012.47729291 .00477673 00000-0 17543-2 0 9994 2 53308 51.6312 4.8515 0005846 66.1452 294.0165 15.86485203 27388 RS1S 1 53309U 98067TU 23012.49022675 .00547208 00000-0 17856-2 0 9998 2 53309 51.6295 4.1693 0006214 67.6763 292.4900 15.88719473 27346 RS5S 1 53310U 98067TV 23012.47239731 .00502954 00000-0 17969-2 0 9995 2 53310 51.6325 4.8201 0005573 63.2752 296.8822 15.86991589 27362 RS6S 1 53311U 98067TW 23012.68714540 .00614276 16022-3 18508-2 0 9990 2 53311 51.6270 2.4703 0006231 77.1019 283.0683 15.91601484 27434 RS9S 1 53312U 98067TX 23012.44202241 .00514299 00000-0 17710-2 0 9999 2 53312 51.6296 4.6055 0006247 64.2793 295.8856 15.87710349 27327 RS12S 1 53313U 98067TY 23012.68565246 .00509487 00000-0 17143-2 0 9996 2 53313 51.6306 3.2388 0006441 69.8790 290.2907 15.88188276 27413 JAGSAT 1 53771U 98067UJ 23012.38933997 .00727840 22545-3 21841-2 0 9999 2 53771 51.6288 6.5055 0008069 68.4893 291.6973 15.91656187 20049 SelfieSat 1 53951U 22057BA 23012.09741326 .00015890 00000-0 84495-3 0 9995 2 53951 97.5316 129.1868 0010272 157.9127 202.2550 15.15308256 34992 FO-118 1 54684U 22167C 23012.82844339 .00010438 00000-0 65647-3 0 9991 2 54684 97.5389 152.2260 0015311 145.4300 12.3498 15.09308225 5205 HO-119 1 54816U 21035C 23012.93559035 .00150118 00000-0 13972-2 0 9992 2 54816 41.4781 21.5367 0005974 32.5841 327.5410 15.66088840 3925 /EX
